Preview of NWS' New Version of Forecast
This preview is not operational and should not be used for support decisions.

Regional Weather Roundup (RWR)

Issued by National Weather Service (NWS)

                            
000
ASUS43 KTOP 221059
RWRKS 

WEATHER ROUNDUP FOR KANSAS
NATIONAL WEATHER SERVICE GOODLAND KS
600 AM CDT MON APR 22 2019

NOTE:  "FAIR" INDICATES FEW OR NO CLOUDS BELOW 12,000 FEET WITH NO
SIGNIFICANT WEATHER AND/OR OBSTRUCTIONS TO VISIBILITY.

KSZ001>006-013>018-027>032-041>047-221200-
NORTHWEST KANSAS
  
CITY           SKY/WX    TMP DP  RH WIND       PRES   REMARKS
GOODLAND       CLOUDY    46  43  89 N21G32    30.06R                  
HAYS           CLEAR     53  48  83 NW12      29.94R                  
HILL CITY      CLOUDY    54  49  83 NW15G24   29.97S                  
RUSSELL        CLEAR     54  49  83 NW15      29.90R                  
$$

KSZ061>065-074>080-084>089-221200-
SOUTHWEST KANSAS
  
CITY           SKY/WX    TMP DP  RH WIND       PRES   REMARKS
DODGE CITY     CLEAR     51  45  79 N15G29    29.96R                  
ELKHART        CLEAR     49  47  92 N20G25    30.05R                  
GARDEN CITY    CLEAR     48  45  89 N17       30.00R                  
GREAT BEND     CLEAR     53  50  89 NW15      29.92R                  
LIBERAL        CLEAR     49  46  90 NW15      30.03R                  
$$

KSZ066>073-081>083-090>101-221200-
SOUTHEAST KANSAS
  
CITY           SKY/WX    TMP DP  RH WIND       PRES   REMARKS
CHANUTE        CLOUDY    65  53  65 SE9       29.93S                  
COFFEYVILLE    CLEAR     64  54  69 S7        29.92R                  
HUTCHINSON     CLEAR     59  52  77 NW12      29.87R                  
MEDICINE LODGE   N/A     56  51  84 NW7       29.89R                  
NEWTON         CLOUDY    62  56  80 S10       29.88R                  
PARSONS        PTCLDY    65  54  67 S3        29.95R                  
WICHITA INTL   MOCLDY    62  57  83 S7        29.87R                  
WICHITA JABRA  PTCLDY    60  55  83 S6        29.87R                  
WICHITA MCCONL CLEAR     61  56  86 SE9       29.86R                  
WINFIELD       CLEAR     61  55  81 SE7       29.89R                  
$$

KSZ007>012-019>026-033>040-048>060-102>105-221200-
NORTHEAST KANSAS
  
CITY           SKY/WX    TMP DP  RH WIND       PRES   REMARKS
CONCORDIA      PTCLDY    58  54  86 W7        29.87R                  
EMPORIA        CLOUDY    66  55  67 S14       29.86S                  
LAWRENCE       CLOUDY    64  55  72 S9        29.87F                  
MANHATTAN      CLOUDY    63  54  72 SW7       29.84R                  
OLATHE IND     CLOUDY    63  57  81 S7        29.90S                  
OLATHE EXE     CLOUDY    63  55  75 S7        29.89F                  
SALINA         CLEAR     57  53  86 NW10      29.87R                  
TOPEKA BILLARD CLOUDY    62  55  77 SE6       29.85F                  
TOPEKA FORBES  CLOUDY    63  54  72 S10       29.86R                  
$$